Location: D�derode
(51.8092°N, 10.1065°E)
Time: 06:00:25
(UTC+00:00)

Cosmos 1782 - Pass Details

Date: 01 December 2020
Orbit: 537 x 551 km, 82.5° (Epoch: 23 January)

Event Time Altitude Azimuth Distance (km) Brightness Sun altitude
Rises 16:20:41 0° 159° (SSE) 2,689 6.4 -10.0°
Reaches altitude 10° 16:23:03 10° 147° (SSE) 1,805 5.3 -10.4°
Maximum altitude 16:26:23 26° 89° (E) 1,087 3.8 -10.8°
Enters shadow 16:29:27 12° 34° (NE) 1,725 4.9 -11.3°
